Regional Weather Roundup
Issued by NWS Northern Indiana

Home | Current Version | Previous Version | Text Only | Print | Product List | Glossary Off
Versions: 1 2 3 4 5 6 7 8 9 10 11 12 13 14 15 16 17 18 19 20 21 22 23 24 25 26 27 28 29 30 31 32 33 34 35 36 37 38 39 40 41 42 43 44 45 46 47 48 49 50

000
ASUS43 KIWX 300010
RWRIWX

KIWX WEATHER ROUNDUP
NATIONAL WEATHER SERVICE NORTHERN INDIANA
800 PM EDT THU SEP 29 2016

NOTE: "FAIR" INDICATES FEW OR NO CLOUDS BELOW 12,000 FEET WITH NO
SIGNIFICANT WEATHER AND/OR OBSTRUCTIONS TO VISIBILITY.

* THESE STATIONS ARE NOT UNDER NWS QUALITY CONTROL. THEY ALSO MAY NOT
  REPORT WEATHER SUCH AS PRECIPITATION OR FOG.

INZ001>027-300100-
NORTHERN INDIANA

CITY           SKY/WX    TMP DP  RH WIND       PRES   REMARKS
GARY*          CLOUDY    64  59  82 NE14G28   30.20R
VALPARAISO     MOCLDY    63  56  78 NE9       30.18R
6HR MIN TEMP:  62; 6HR MAX TEMP:  68; 6HR PCP:  0.15;

MICHIGAN CITY* CLOUDY    61  55  82 CALM      30.19S
LAPORTE*       CLOUDY    64  62  93 NE9       30.19R
6HR MIN TEMP:  64; 6HR MAX TEMP:  71;

KNOX*          MOCLDY    63  36  36 NE9       30.16R
SOUTH BEND     CLOUDY    61  57  87 NE10G18   30.19R
6HR MIN TEMP:  61; 6HR MAX TEMP:  70;

ELKHART*       MOCLDY   N/A N/A N/A NE10      30.18R
GOSHEN         LGT RAIN  61  58  90 N12       30.17R FOG
6HR MIN TEMP:  61; 6HR MAX TEMP:  70; 6HR PCP:  0.09;

MONTICELLO*    CLOUDY    64  45  49 CALM      30.12S
6HR MIN TEMP:  64; 6HR MAX TEMP:  73;

LOGANSPORT*    CLOUDY    64  52  63 NE5       30.13F
ROCHESTER*     CLOUDY    66  55  68 N6        30.14S
WARSAW*        CLOUDY    63  61  94 N13       30.15R
ANGOLA*          N/A     61  48  63 N6        30.15F
FORT WAYNE     HVY RAIN  62  57  83 N13G24    30.13S
6HR MIN TEMP:  62; 6HR MAX TEMP:  69; 6HR PCP:  0.04;

HUNTINGTON*    LGT RAIN  61  56  82 N3        30.12F
PERU/GRISSOM   MOCLDY    64  53  68 NE8       30.11S
6HR MIN TEMP:  64; 6HR MAX TEMP:  70;

MARION*        CLOUDY    64  53  69 E8        30.13R
6HR MIN TEMP:  49; 6HR MAX TEMP:  89;


$$
INZ028>050-300100-
CENTRAL INDIANA

CITY           SKY/WX    TMP DP  RH WIND       PRES   REMARKS
LAFAYETTE      PTCLDY    63  51  65 N6        30.11S
6HR MIN TEMP:  63; 6HR MAX TEMP:  69;

KOKOMO*        CLOUDY    64  53  67 NE10      30.13S
6HR MIN TEMP:  64; 6HR MAX TEMP:  69;

MUNCIE*        LGT RAIN  61  57  87 NE13      30.10S
6HR MIN TEMP:  61; 6HR MAX TEMP:  72; 6HR PCP:  0.01;

INDIANAPOLIS   CLOUDY    64  51  62 N6        30.09R
6HR MIN TEMP:  63; 6HR MAX TEMP:  69;


$$
MIZ043>046-050>051-056>058-064>065-071>073-077>080-300100-
SOUTHWEST LOWER MICHIGAN

CITY           SKY/WX    TMP DP  RH WIND       PRES   REMARKS
BATTLE CREEK   LGT RAIN  59  58  96 NE12      30.21S
6HR MIN TEMP:  59; 6HR MAX TEMP:  64; 6HR PCP:  0.14;

BENTON HARBOR  CLOUDY    61  56  83 NE12G18   30.20S
6HR MIN TEMP:  61; 6HR MAX TEMP:  68;

COLDWATER*     RAIN      60  59  97 N12G18    30.17F
6HR MIN TEMP:  60; 6HR MAX TEMP:  69;

HILLSDALE*     RAIN      59  57  94 NE12      30.16S
HOLLAND        CLOUDY    61  55  81 NE10      30.23S
6HR MIN TEMP:  61; 6HR MAX TEMP:  65; 6HR PCP: TRACE;

GRAND RAPIDS   LGT RAIN  59  55  87 NE16      30.24F
6HR MIN TEMP:  59; 6HR MAX TEMP:  62; 6HR PCP:  0.01;

KALAMAZOO      LGT RAIN  59  56  89 N6        30.21F FOG
6HR MIN TEMP:  59; 6HR MAX TEMP:  67; 6HR PCP:  0.13;

STURGIS*       LGT RAIN  60  58  92 NE8G16    30.17S
6HR MIN TEMP:  60; 6HR MAX TEMP:  69;

THREE RIVERS*  LGT RAIN  60  58  93 NE7       30.19F
6HR MIN TEMP:  60; 6HR MAX TEMP:  68;


$$
OHZ001>008-015>018-024>025-300100-
NORTHWEST OHIO

CITY           SKY/WX    TMP DP  RH WIND       PRES   REMARKS
WAUSEON*       RAIN      61  59  94 NE12      30.13F
DEFIANCE       CLOUDY    62  58  86 NE12      30.12F
6HR MIN TEMP:  62; 6HR MAX TEMP:  69; 6HR PCP:  0.33;

FINDLAY        CLOUDY    61  58  90 CALM      30.09S
6HR MIN TEMP:  61; 6HR MAX TEMP:  69; 6HR PCP:  0.23;

TOLEDO EXPRESS LGT RAIN  61  61 100 NE13      30.12S
6HR MIN TEMP:  60; 6HR MAX TEMP:  68; 6HR PCP:  0.46;

TOLEDO METCALF LGT RAIN  62  62 100 CALM      30.13S FOG
6HR MIN TEMP:  61; 6HR MAX TEMP:  65; 6HR PCP:  0.33;

LIMA           CLOUDY    60  59  96 N5        30.10S
6HR MIN TEMP:  59; 6HR MAX TEMP:  68; 6HR PCP:  0.01;


$$
AND FOR LAKE MICHIGAN COASTAL AND OPEN LAKE BUOY OBSERVATIONS

STATION/POSITION TEMP    WIND        PRES    VSBY  WAVE
                 AIR SEA DIR/SP/G                  HT/PER
                 (F)     (DEG/KT/KT) (MB)    (MI)  (FT/S)
CALUMET HARBOR            20/ 14/ 22 1022.2R
MICHIGAN CITY     62      20/ 23/ 25   N/A
BURNS HARBOR      63      40/ 22/ 26 1022.4R
SAINT JOSEPH      62      30/  7/ 10 1023.4R
SOUTH LAKE BUOY   65 68   70/ 23/ 27 1023.0S         6/ 6
4 MI NW BRIDGMAN  61 62   30/ 14/ 17 1022.6          5/ 6
MICHIGAN CITY     62 65   40/ 17/ 23   N/A           7/ 7

$$
&&




USA.gov is the U.S. government's official web portal to all federal, state and local government web resources and services.